This demonstration page uses our WeatherBlox Daily Observations layout. Learn more.

Left ArrowRight Arrow

Hourly Observations for January 13, 2016

Temp ( °F °C ) Dew Point ( °F °C ) Humidity (%) Winds ( mph kmh ) Pressure ( in mb ) Visibility ( mi km ) Precip ( " mm )
12:51 am 00:51 Clear 35 1.7 28 -2.2 76 76 ESE 8 13 30.16 1021 10 16 N/A
1:51 am 01:51 Clear 30 -1.1 27 -2.8 88 88 NW 6 9 30.17 1022 10 16 N/A
2:51 am 02:51 Clear 31 -0.6 28 -2.2 89 89 NNW 7 11 30.16 1021 10 16 N/A
3:51 am 03:51 Clear 30 -1.1 26 -3.3 85 85 WNW 6 9 30.17 1022 10 16 N/A
4:51 am 04:51 Clear 28 -2.2 25 -3.9 88 88 N 5 7 30.18 1022 10 16 N/A
5:51 am 05:51 Clear 30 -1.1 26 -3.3 85 85 N N/A 30.19 1022 10 16 N/A
6:51 am 06:51 Clear 27 -2.8 25 -3.9 92 92 ESE 6 9 30.22 1023 10 16 N/A
7:51 am 07:51 Sunny 31 -0.6 24 -4.4 76 76 ENE 6 9 30.22 1024 10 16 N/A
8:51 am 08:51 Sunny 38 3.3 23 -5 55 55 E 5 7 30.22 1023 10 16 N/A
9:15 am 09:15 Hazy 38 3.3 27 -2.8 65 65 N N/A 30.30 1026 2 3 N/A
9:31 am 09:31 Hazy 39 3.9 27 -2.8 62 62 N N/A 30.27 1025 1 1 N/A
9:35 am 09:35 Hazy 40 4.4 27 -2.8 60 60 N N/A 30.27 1025 3 4 N/A
9:42 am 09:42 Sunny 42 5.6 23 -5 47 47 ESE 12 19 30.27 1025 10 16 N/A
9:51 am 09:51 Sunny 42 5.6 25 -3.9 51 51 SSE 8 13 30.22 1024 N/A N/A
10:05 am 10:05 Hazy 43 6.1 25 -3.9 49 49 ESE 8 13 30.27 1025 2 2 N/A
10:15 am 10:15 Sunny 44 6.7 22 -5.6 41 41 ESE 9 15 30.24 1024 9 14 N/A
10:51 am 10:51 Sunny 46 7.8 23 -5 40 40 SE 9 15 30.21 1023 N/A N/A
11:51 am 11:51 Sunny 49 9.4 27 -2.8 43 43 S 7 11 30.17 1022 10 16 N/A
12:51 pm 12:51 Sunny 51 10.6 26 -3.3 38 38 N N/A 30.13 1020 10 16 N/A
1:51 pm 13:51 Sunny 54 12.2 24 -4.4 31 31 N N/A 30.08 1019 10 16 N/A
2:51 pm 14:51 Sunny 55 12.8 24 -4.4 30 30 E 3 6 30.05 1018 10 16 N/A
3:51 pm 15:51 Sunny 58 14.4 24 -4.4 27 27 N N/A 30.03 1017 10 16 N/A
4:51 pm 16:51 Sunny 56 13.3 25 -3.9 30 30 N N/A 30.04 1017 10 16 N/A
5:31 pm 17:31 Hazy 51 10.6 28 -2.2 41 41 W 7 11 30.03 1017 2 3 N/A
5:33 pm 17:33 Hazy 50 10 28 -2.2 43 43 W 7 11 30.03 1017 1 1 N/A
5:41 pm 17:41 Hazy 49 9.4 29 -1.7 46 46 W 8 13 30.06 1018 1 2 N/A
5:43 pm 17:43 Hazy 50 10 29 -1.7 44 44 W 8 13 30.03 1017 6 10 N/A
5:51 pm 17:51 Hazy 48 8.9 29 -1.7 48 48 WNW 8 13 30.05 1018 5 8 N/A
6:11 pm 18:11 Hazy 44 6.7 30 -1.1 58 58 WNW 6 9 30.09 1019 2 3 N/A
6:24 pm 18:24 Clear 44 6.7 30 -1.1 58 58 NNW 7 11 30.09 1019 10 16 N/A
6:51 pm 18:51 Clear 42 5.6 30 -1.1 62 62 NNW 8 13 30.07 1018 10 16 N/A
7:51 pm 19:51 Clear 43 6.1 30 -1.1 60 60 N 6 9 30.07 1018 10 16 N/A
8:18 pm 20:18 Hazy 38 3.3 30 -1.1 73 73 NE 5 7 30.12 1020 3 4 N/A
8:27 pm 20:27 Clear 38 3.3 30 -1.1 73 73 ESE 6 9 30.12 1020 10 16 N/A
8:51 pm 20:51 Clear 39 3.9 30 -1.1 70 70 E 6 9 30.06 1018 10 16 N/A
9:51 pm 21:51 Clear 35 1.7 29 -1.7 78 78 E 7 11 30.06 1018 10 16 N/A
10:51 pm 22:51 Clear 34 1.1 29 -1.7 82 82 ESE 3 6 30.05 1018 10 16 N/A
11:51 pm 23:51 Clear 32 undefined 28 -2.2 85 85 WNW 6 9 30.06 1018 10 16 N/A

Powered by AerisWeather